Location: Izdebno
(52.6670°N, 16.2170°E)
Time: 04:06:44
(UTC+02:00)

Transit 4A - Pass Details

Date: 24 February 2024
Orbit: 871 x 972 km, 66.8° (Epoch: 22 April)

Event Time Altitude Azimuth Distance (km) Brightness Sun altitude
Rises 23:38:08 0° 151° (SSE) 3,600 - -46.3°
Reaches altitude 10° 23:42:28 10° 123° (ESE) 2,638 - -46.4°
Maximum altitude 23:44:41 12° 101° (E) 2,475 - -46.4°
Drops below altitude 10° 23:46:54 10° 79° (E) 2,619 - -46.5°
Exits shadow 23:50:39 - 53° (NE) 3,408 11.1 -46.6°
Sets 23:51:08 0° 51° (NE) 3,542 11.2 -46.6°
